Kalispell, MT

2:29 AM MST on November 18, 2017 (GMT -0700)
Glacier Park International

Weather History for KGPI - October, 2012

Change the Weather History Date:

Saturday, October 27, 2012

  Actual Average Record
Temperature  
Mean Temperature 34 °F 38 °F  
Max Temperature 36 °F 49 °F 69 °F (1983)
Min Temperature 32 °F 27 °F 13 °F (2002)
Degree Days  
Heating Degree Days 31 27  
Month to date heating degree days 620 598  
Since 1 July heating degree days 1006 1098  
Cooling Degree Days 0 0  
Month to date cooling degree days 0 0  
Year to date cooling degree days 192 147  
Moisture  
Dew Point 33 °F    
Average Humidity 96    
Maximum Humidity 100    
Minimum Humidity 92    
Precipitation  
Precipitation 0.27 in 0.04 in 0.42 in (1929)
Month to date precipitation 1.80 0.85  
Year to date precipitation 16.75 13.84  
Snow  
Snow 0.70 in - - ()
Month to date snowfall 2.0  
Year to date snowfall 27.1  
Since 1 July snowfall 2.0  
Snow Depth 1.00 in    
Sea Level Pressure  
Sea Level Pressure 30.04 in    
Wind  
Wind Speed 1 mph (South)    
Max Wind Speed 6 mph    
Max Gust Speed 20 mph    
Visibility 4 miles    
Events Rain , Snow    
T = Trace of Precipitation, MM = Missing Value Source: NWS Daily Summary

Daily Weather History Graph

Daily Weather History Graph

Search for Another Location

Airport or City:

Trip Planner

Search our weather history database for the weather conditions in past years. The results will help you decide how hot, cold, wet, or windy it might be!

Date:

Astronomy

Oct. 27, 2012 Rise Set
Actual Time 8:15 AM MDT 6:25 PM MDT
Civil Twilight 7:43 AM MDT 6:57 PM MDT
Nautical Twilight 7:06 AM MDT 7:33 PM MDT
Astronomical Twilight 6:30 AM MDT 8:10 PM MDT
Moon 5:17 PM MDT (10/27) 6:08 AM MDT (10/27)
Length of Visible Light 11h 13m
Length of Day
10h 09m
Waxing Gibbous, 96% of the Moon is Illuminated
Oct 27
Waxing Gibbous
Oct 29
Full
Nov 6
Last Quarter
Nov 13
New
Nov 20
First Quarter

Hourly Weather History & Observations

Time (MDT) Temp. Windchill Dew Point Humidity Pressure Visibility Wind Dir Wind Speed Gust Speed Precip Events Conditions
12:08 AM 33.8 °F - 32.0 °F 93% 30.07 in 1.5 mi Calm Calm - 0.00 in Snow Light Snow
12:18 AM 33.8 °F - 32.0 °F 93% 30.07 in 1.2 mi Calm Calm - 0.01 in Snow Light Snow
12:28 AM 32.0 °F - 32.0 °F 100% 30.06 in 1.5 mi Calm Calm - 0.01 in Snow Light Snow
12:38 AM 32.0 °F - 32.0 °F 100% 30.06 in 1.0 mi Calm Calm - 0.02 in Snow Light Snow
12:55 AM 32.0 °F - 32.0 °F 100% 30.13 in 0.8 mi Calm Calm - 0.03 in Snow Light Snow
1:17 AM 32.0 °F - 32.0 °F 100% 30.06 in 1.0 mi Calm Calm - 0.02 in Snow Light Snow
1:41 AM 32.0 °F - 32.0 °F 100% 30.05 in 1.5 mi Calm Calm - 0.03 in Snow Light Snow
1:55 AM 32.0 °F - 32.0 °F 100% 30.12 in 1.5 mi Calm Calm - 0.03 in Snow Light Snow
2:19 AM 32.0 °F - 32.0 °F 100% 30.04 in 3.0 mi Calm Calm - 0.00 in Snow Light Snow
2:30 AM 33.8 °F - 32.0 °F 93% 30.04 in 7.0 mi Calm Calm - 0.01 in Snow Light Snow
2:36 AM 33.8 °F - 32.0 °F 93% 30.04 in 9.0 mi Calm Calm - 0.01 in   Overcast
2:51 AM 32.0 °F - 32.0 °F 100% 30.04 in 10.0 mi Calm Calm - 0.01 in   Overcast
2:55 AM 32.0 °F - 32.0 °F 100% 30.10 in 10.0 mi Calm Calm - 0.01 in   Overcast
3:55 AM 33.1 °F - 32.0 °F 96% 30.09 in 8.0 mi Calm Calm - 0.01 in Snow Light Snow
4:55 AM 32.0 °F - 32.0 °F 100% 30.08 in 10.0 mi Calm Calm - 0.00 in   Overcast
5:55 AM 32.0 °F - 32.0 °F 100% 30.09 in 3.0 mi Calm Calm - 0.00 in Snow Light Snow
6:04 AM 32.0 °F - 32.0 °F 100% 30.02 in 2.5 mi Calm Calm - 0.01 in Snow Light Snow
6:28 AM 32.0 °F 28.7 °F 32.0 °F 100% 30.02 in 2.5 mi South 3.5 mph - 0.02 in Snow Light Snow
6:44 AM 32.0 °F 28.7 °F 32.0 °F 100% 30.02 in 3.0 mi South 3.5 mph - 0.03 in Snow Light Snow
6:48 AM 32.0 °F 28.7 °F 32.0 °F 100% 30.02 in 2.5 mi South 3.5 mph - 0.03 in Snow Light Snow
6:55 AM 32.0 °F 28.7 °F 32.0 °F 100% 30.09 in 1.8 mi South 3.5 mph - 0.03 in Snow Light Snow
7:09 AM 32.0 °F - 32.0 °F 100% 30.02 in 2.5 mi Calm Calm - 0.01 in Snow Light Snow
7:39 AM 32.0 °F 28.7 °F 32.0 °F 100% 30.02 in 3.0 mi South 3.5 mph - 0.02 in Snow Light Snow
7:55 AM 32.0 °F 28.7 °F 32.0 °F 100% 30.02 in 1.5 mi South 3.5 mph - N/A Snow Light Snow
9:55 AM 33.1 °F 30.0 °F 32.0 °F 96% 30.10 in 1.5 mi South 3.5 mph - 0.01 in Snow Light Snow
10:55 AM 33.8 °F 30.8 °F 33.8 °F 100% 30.03 in 1.5 mi SW 3.5 mph - N/A Snow Light Snow
11:55 AM 35.1 °F 31.0 °F 34.0 °F 96% 30.10 in 2.0 mi SSW 4.6 mph - 0.01 in Rain Light Rain
12:55 PM 35.1 °F 31.0 °F 34.0 °F 96% 30.10 in 2.0 mi SW 4.6 mph - 0.01 in Rain Light Rain
1:02 PM 35.6 °F 32.8 °F 33.8 °F 93% 30.02 in 5.0 mi SSW 3.5 mph - 0.01 in Rain Light Rain
1:10 PM 35.6 °F 32.8 °F 33.8 °F 93% 30.02 in 2.0 mi South 3.5 mph - 0.01 in Rain Light Rain
1:55 PM 35.1 °F 32.2 °F 34.0 °F 96% 30.09 in 2.0 mi SSE 3.5 mph - 0.02 in Rain Light Rain
2:48 PM 35.6 °F - 35.6 °F 100% 30.00 in 10.0 mi Calm Calm - 0.00 in   Overcast
2:55 PM 36.0 °F - 35.1 °F 97% 30.07 in 3.0 mi Calm Calm - 0.00 in   Overcast
3:07 PM 35.6 °F - 33.8 °F 93% 30.00 in 10.0 mi Calm Calm - N/A   Overcast
3:42 PM 35.6 °F - 33.8 °F 93% 30.00 in 2.5 mi Calm Calm - 0.00 in Rain Rain
3:53 PM 35.6 °F - 33.8 °F 93% 29.99 in 3.0 mi Calm Calm - 0.02 in Rain Light Rain
3:55 PM 35.1 °F - 34.0 °F 96% 30.06 in 3.0 mi Calm Calm - 0.02 in Rain Light Rain
4:02 PM 35.6 °F - 35.6 °F 100% 29.99 in 3.0 mi Calm Calm - 0.00 in Rain Light Rain
4:30 PM 33.8 °F 30.8 °F 33.8 °F 100% 30.00 in 3.0 mi NNE 3.5 mph - 0.02 in Rain Light Rain
4:45 PM 33.8 °F 30.8 °F 33.8 °F 100% 29.99 in 2.5 mi NNE 3.5 mph - 0.03 in Snow Light Snow
4:52 PM 33.8 °F - 33.8 °F 100% 30.00 in 3.0 mi Calm Calm - 0.04 in Snow Light Snow
4:55 PM 34.0 °F - 33.1 °F 96% 30.07 in 2.5 mi Calm Calm - 0.04 in Snow Light Snow
5:55 PM 34.0 °F - 33.1 °F 96% 30.06 in 2.5 mi Calm Calm - 0.01 in Rain Light Rain
6:55 PM 34.0 °F - 33.1 °F 96% 30.05 in 3.0 mi Calm Calm - 0.00 in   Overcast
7:55 PM 34.0 °F - 33.1 °F 96% 30.04 in 7.0 mi Calm Calm - N/A   Overcast
8:55 PM 34.0 °F - 33.1 °F 96% 30.03 in 6.0 mi Calm Calm - N/A   Overcast
9:55 PM 34.0 °F - 34.0 °F 100% 29.99 in 5.0 mi Calm Calm - N/A   Overcast
10:55 PM 34.0 °F - 34.0 °F 100% 29.99 in 4.0 mi Calm Calm - N/A   Overcast
11:41 PM 33.8 °F - 33.8 °F 100% 29.91 in 5.0 mi Calm Calm - N/A   Overcast
11:55 PM 35.1 °F - 34.0 °F 96% 29.99 in 6.0 mi Calm Calm - 0.00 in Rain Light Rain